When you browse on this site, cookies collect data to enhance your experience and personalize the content and advertising you see.
Visit our Privacy Policy to learn more. By continuing to use the site, you agree to this use of cookies and data.
  • In Romania
  • List of Countries
  • For 7 days
  • Water Temperature
  • Satellite Maps
  • Weather Map
  • Weather Widgets
  • user-avatar
    Login

    Hourly Weather Balchik

    Today, 19 July, Friday

    Time Temperature Precipitation Wind Pressure Humidity
    00:00 +19°C° 0 mm 1 mps 738 mmHg 79%
    01:00 +19°C° 0 mm 1 mps 738 mmHg 78%
    02:00 +18°C° 0 mm 1 mps 739 mmHg 78%
    03:00 +18°C° 0 mm 1 mps 739 mmHg 77%
    04:00 +18°C° 0 mm 1 mps 739 mmHg 76%
    05:00 +18°C° 0 mm 1 mps 739 mmHg 75%
    06:00 +20°C° 0 mm 1 mps 739 mmHg 67%
    07:00 +23°C° 0 mm 2 mps 740 mmHg 59%
    08:00 +25°C° 0 mm 2 mps 740 mmHg 50%
    09:00 +26°C° 0 mm 2 mps 740 mmHg 46%
    10:00 +28°C° 0 mm 3 mps 740 mmHg 41%
    11:00 +29°C° 0 mm 3 mps 741 mmHg 36%
    12:00 +29°C° 0 mm 3 mps 741 mmHg 36%
    13:00 +29°C° 0 mm 4 mps 740 mmHg 35%
    14:00 +30°C° 0 mm 4 mps 740 mmHg 34%
    15:00 +29°C° 0 mm 4 mps 740 mmHg 36%
    16:00 +28°C° 0 mm 4 mps 740 mmHg 38%
    17:00 +28°C° 0 mm 5 mps 740 mmHg 40%
    18:00 +25°C° 0 mm 4 mps 740 mmHg 48%
    19:00 +22°C° 0 mm 4 mps 740 mmHg 57%
    20:00 +20°C° 0 mm 3 mps 740 mmHg 66%
    21:00 +19°C° 0 mm 3 mps 740 mmHg 70%
    22:00 +19°C° 0 mm 3 mps 741 mmHg 74%
    23:00 +18°C° 0 mm 2 mps 741 mmHg 77%

    Tomorrow, 20 July, Saturday

    Time Temperature Precipitation Wind Pressure Humidity
    00:00 +18°C° 0 mm 2 mps 741 mmHg 77%
    01:00 +18°C° 0 mm 2 mps 741 mmHg 77%
    02:00 +19°C° 0 mm 1 mps 741 mmHg 77%
    03:00 +18°C° 0 mm 1 mps 741 mmHg 75%
    04:00 +18°C° 0 mm 1 mps 741 mmHg 72%
    05:00 +18°C° 0 mm 1 mps 741 mmHg 70%
    06:00 +21°C° 0 mm 1 mps 741 mmHg 62%
    07:00 +23°C° 0 mm 2 mps 742 mmHg 53%
    08:00 +26°C° 0 mm 2 mps 742 mmHg 44%
    09:00 +27°C° 0 mm 2 mps 742 mmHg 41%
    10:00 +28°C° 0 mm 3 mps 743 mmHg 39%
    11:00 +30°C° 0 mm 4 mps 743 mmHg 36%
    12:00 +30°C° 0 mm 4 mps 743 mmHg 35%
    13:00 +32°C° 0 mm 4 mps 743 mmHg 34%
    14:00 +32°C° 0 mm 4 mps 743 mmHg 34%
    15:00 +30°C° 0 mm 4 mps 742 mmHg 36%
    16:00 +29°C° 0 mm 4 mps 742 mmHg 38%
    17:00 +29°C° 0 mm 4 mps 742 mmHg 40%
    18:00 +26°C° 0 mm 4 mps 742 mmHg 48%
    19:00 +24°C° 0 mm 3 mps 742 mmHg 56%
    20:00 +21°C° 0 mm 2 mps 742 mmHg 64%
    21:00 +20°C° 0 mm 2 mps 742 mmHg 65%
    22:00 +21°C° 0 mm 1 mps 742 mmHg 66%
    23:00 +20°C° 0 mm 1 mps 742 mmHg 67%

    Day after tomorrow, 21 July, Sunday

    Time Temperature Precipitation Wind Pressure Humidity
    00:00 +20°C° 0 mm 1 mps 742 mmHg 64%
    01:00 +20°C° 0 mm 1 mps 742 mmHg 61%
    02:00 +20°C° 0 mm 1 mps 742 mmHg 58%
    03:00 +20°C° 0 mm 1 mps 742 mmHg 57%
    04:00 +19°C° 0 mm 1 mps 742 mmHg 56%
    05:00 +17°C° 0 mm 0 mps 742 mmHg 55%
    06:00 +22°C° 0 mm 1 mps 742 mmHg 50%
    07:00 +24°C° 0 mm 1 mps 742 mmHg 44%
    08:00 +26°C° 0 mm 1 mps 743 mmHg 39%
    09:00 +28°C° 0 mm 2 mps 743 mmHg 36%
    10:00 +29°C° 0 mm 2 mps 743 mmHg 34%
    11:00 +31°C° 0 mm 3 mps 743 mmHg 31%
    12:00 +31°C° 0 mm 3 mps 743 mmHg 32%
    13:00 +31°C° 0 mm 3 mps 743 mmHg 32%
    14:00 +33°C° 0 mm 3 mps 743 mmHg 32%
    15:00 +31°C° 0 mm 3 mps 743 mmHg 34%
    16:00 +32°C° 0 mm 4 mps 742 mmHg 36%
    17:00 +30°C° 0 mm 4 mps 742 mmHg 38%
    18:00 +28°C° 0 mm 3 mps 742 mmHg 45%
    19:00 +25°C° 0 mm 3 mps 742 mmHg 51%
    20:00 +23°C° 0 mm 2 mps 742 mmHg 58%
    21:00 +23°C° 0 mm 2 mps 742 mmHg 57%
    22:00 +21°C° 0 mm 2 mps 742 mmHg 57%
    23:00 +21°C° 0 mm 3 mps 742 mmHg 56%

    22 July, Monday

    Time Temperature Precipitation Wind Pressure Humidity
    00:00 +21°C° 0 mm 2 mps 742 mmHg 55%
    01:00 +21°C° 0 mm 2 mps 742 mmHg 54%
    02:00 +21°C° 0 mm 2 mps 742 mmHg 53%
    03:00 +21°C° 0 mm 2 mps 742 mmHg 53%
    04:00 +21°C° 0 mm 2 mps 741 mmHg 52%
    05:00 +21°C° 0 mm 2 mps 741 mmHg 52%
    06:00 +24°C° 0 mm 2 mps 742 mmHg 49%
    07:00 +26°C° 0 mm 1 mps 742 mmHg 45%
    08:00 +29°C° 0 mm 1 mps 742 mmHg 42%
    09:00 +30°C° 0 mm 1 mps 742 mmHg 39%
    10:00 +32°C° 0 mm 1 mps 742 mmHg 36%
    11:00 +34°C° 0 mm 1 mps 742 mmHg 33%
    12:00 +34°C° 0 mm 2 mps 742 mmHg 33%
    13:00 +34°C° 0 mm 2 mps 741 mmHg 33%
    14:00 +34°C° 0 mm 2 mps 741 mmHg 33%
    15:00 +33°C° 0 mm 3 mps 741 mmHg 34%
    16:00 +33°C° 0 mm 3 mps 740 mmHg 36%
    17:00 +31°C° 0 mm 3 mps 740 mmHg 38%
    18:00 +30°C° 0 mm 3 mps 740 mmHg 40%
    19:00 +28°C° 0 mm 3 mps 740 mmHg 43%
    20:00 +27°C° 0 mm 3 mps 740 mmHg 45%
    21:00 +26°C° 0 mm 3 mps 740 mmHg 48%
    22:00 +25°C° 0 mm 2 mps 740 mmHg 50%
    23:00 +24°C° 0 mm 2 mps 740 mmHg 52%

    23 July, Tuesday

    Time Temperature Precipitation Wind Pressure Humidity
    00:00 +24°C° 0 mm 2 mps 739 mmHg 54%
    01:00 +23°C° 0 mm 2 mps 739 mmHg 56%
    02:00 +23°C° 0 mm 2 mps 739 mmHg 57%
    03:00 +22°C° 0 mm 3 mps 739 mmHg 62%
    04:00 +22°C° 0 mm 3 mps 739 mmHg 66%
    05:00 +21°C° 0 mm 3 mps 739 mmHg 71%
    06:00 +23°C° 0 mm 4 mps 739 mmHg 68%
    07:00 +25°C° 0 mm 4 mps 739 mmHg 65%
    08:00 +26°C° 0 mm 5 mps 739 mmHg 62%
    09:00 +27°C° 0 mm 4 mps 739 mmHg 59%
    10:00 +28°C° 0 mm 4 mps 739 mmHg 55%
    11:00 +29°C° 0 mm 4 mps 739 mmHg 52%
    12:00 +29°C° 0.1 mm 4 mps 739 mmHg 48%
    13:00 +29°C° 0.1 mm 4 mps 739 mmHg 44%
    14:00 +30°C° 0.1 mm 4 mps 739 mmHg 41%
    15:00 +30°C° 0 mm 5 mps 739 mmHg 41%
    16:00 +29°C° 0 mm 5 mps 739 mmHg 41%
    17:00 +29°C° 0 mm 6 mps 738 mmHg 41%
    18:00 +27°C° 0 mm 5 mps 738 mmHg 49%
    19:00 +25°C° 0 mm 4 mps 738 mmHg 57%
    20:00 +21°C° 0 mm 3 mps 738 mmHg 65%
    21:00 +21°C° 0 mm 3 mps 738 mmHg 66%
    22:00 +20°C° 0 mm 4 mps 739 mmHg 68%
    23:00 +20°C° 0 mm 4 mps 739 mmHg 69%

    24 July, Wednesday

    Time Temperature Precipitation Wind Pressure Humidity
    00:00 +19°C° 0 mm 4 mps 739 mmHg 73%
    01:00 +18°C° 0 mm 4 mps 738 mmHg 77%
    02:00 +17°C° 0 mm 4 mps 738 mmHg 80%
    03:00 +17°C° 0 mm 4 mps 738 mmHg 81%
    04:00 +17°C° 0 mm 4 mps 738 mmHg 82%
    05:00 +15°C° 0 mm 4 mps 738 mmHg 83%
    06:00 +18°C° 0 mm 4 mps 738 mmHg 74%
    07:00 +20°C° 0 mm 5 mps 738 mmHg 66%
    08:00 +22°C° 0 mm 5 mps 739 mmHg 58%
    09:00 +25°C° 0 mm 5 mps 739 mmHg 51%
    10:00 +27°C° 0 mm 5 mps 739 mmHg 44%
    11:00 +28°C° 0 mm 6 mps 739 mmHg 37%
    12:00 +29°C° 0 mm 5 mps 738 mmHg 34%
    13:00 +30°C° 0 mm 5 mps 738 mmHg 31%
    14:00 +32°C° 0 mm 4 mps 738 mmHg 28%
    15:00 +30°C° 0 mm 4 mps 738 mmHg 31%
    16:00 +30°C° 0 mm 4 mps 737 mmHg 33%
    17:00 +29°C° 0 mm 4 mps 737 mmHg 35%
    18:00 +27°C° 0 mm 3 mps 737 mmHg 46%
    19:00 +24°C° 0 mm 3 mps 737 mmHg 57%
    20:00 +21°C° 0 mm 3 mps 737 mmHg 68%
    21:00 +20°C° 0 mm 2 mps 737 mmHg 70%
    22:00 +20°C° 0 mm 2 mps 737 mmHg 72%
    23:00 +19°C° 0 mm 2 mps 737 mmHg 74%
    Show more